TimeEDT,TemperatureF,Dew PointF,Humidity,Sea Level PressureIn,VisibilityMPH,Wind Direction,Wind SpeedMPH,Gust SpeedMPH,PrecipitationIn,Events,Conditions,WindDirDegrees,DateUTC
12:53 AM,37.0,19.9,50,30.04,10.0,Calm,Calm,-,N/A,,Overcast,0,2013-03-23 04:53:00
1:53 AM,37.0,19.9,50,30.03,10.0,Calm,Calm,-,N/A,,Overcast,0,2013-03-23 05:53:00
2:53 AM,36.0,24.1,62,30.02,10.0,Calm,Calm,-,N/A,,Overcast,0,2013-03-23 06:53:00
3:53 AM,36.0,24.1,62,30.01,10.0,Calm,Calm,-,N/A,,Overcast,0,2013-03-23 07:53:00
4:53 AM,36.0,24.1,62,30.00,10.0,North,3.5,-,N/A,,Overcast,360,2013-03-23 08:53:00
5:53 AM,37.0,19.0,48,30.00,10.0,ENE,5.8,-,N/A,,Overcast,70,2013-03-23 09:53:00
6:53 AM,37.0,19.0,48,30.02,10.0,ENE,4.6,-,N/A,,Overcast,60,2013-03-23 10:53:00
7:53 AM,37.0,19.0,48,30.03,10.0,ENE,3.5,-,N/A,,Overcast,70,2013-03-23 11:53:00
8:53 AM,37.9,19.0,47,30.05,10.0,East,5.8,-,N/A,,Overcast,80,2013-03-23 12:53:00
9:53 AM,39.0,18.0,43,30.05,10.0,ESE,6.9,-,N/A,,Overcast,110,2013-03-23 13:53:00
10:53 AM,42.1,18.0,38,30.05,10.0,East,10.4,-,N/A,,Overcast,90,2013-03-23 14:53:00
11:53 AM,45.0,17.1,33,30.05,10.0,East,6.9,-,N/A,,Scattered Clouds,90,2013-03-23 15:53:00
12:53 PM,46.9,15.1,28,30.04,10.0,Calm,Calm,-,N/A,,Partly Cloudy,0,2013-03-23 16:53:00
1:53 PM,50.0,17.1,27,30.02,10.0,ENE,5.8,-,N/A,,Clear,70,2013-03-23 17:53:00
2:53 PM,52.0,18.0,26,29.99,10.0,Variable,6.9,-,N/A,,Clear,0,2013-03-23 18:53:00
3:53 PM,54.0,19.9,26,29.96,10.0,North,9.2,-,N/A,,Clear,10,2013-03-23 19:53:00
4:53 PM,54.0,19.9,26,29.95,10.0,ENE,8.1,-,N/A,,Clear,60,2013-03-23 20:53:00
5:53 PM,53.1,21.0,29,29.93,10.0,NE,9.2,-,N/A,,Clear,50,2013-03-23 21:53:00
6:53 PM,50.0,21.9,33,29.94,10.0,ENE,10.4,-,N/A,,Clear,60,2013-03-23 22:53:00
7:53 PM,46.9,21.0,36,29.94,10.0,ENE,10.4,-,N/A,,Clear,70,2013-03-23 23:53:00
8:53 PM,45.0,21.9,40,29.91,10.0,ENE,10.4,-,N/A,,Clear,60,2013-03-24 00:53:00
9:53 PM,43.0,21.9,43,29.90,10.0,ENE,9.2,-,N/A,,Clear,60,2013-03-24 01:53:00
10:53 PM,42.1,21.9,45,29.89,10.0,NE,9.2,-,N/A,,Clear,50,2013-03-24 02:53:00
11:53 PM,41.0,21.9,47,29.86,10.0,ENE,10.4,-,N/A,,Clear,70,2013-03-24 03:53:00